This is the latest recevied weather packets stored in our database for station/object 4S6DRJ-13. If no packets are shown the sender has not sent any weather packets the latest 10 day(s).
| Time | Temp. | Humidity | Pressure | Rain* | Wind** | Luminosity | Snow |
|---|---|---|---|---|---|---|---|
| 1788362879 | 27.78° C | 86% | 1010.5 hPa | 0 mm | 1.79 m/s, 224° | 0 W/m² | - |
| 1788362818 | 27.78° C | 86% | 1010.5 hPa | 0 mm | 1.34 m/s, 204° | 0 W/m² | - |
| 1788362757 | 27.78° C | 86% | 1010.4 hPa | 0 mm | 0.89 m/s, 236° | 0 W/m² | - |
| 1788362696 | 27.78° C | 86% | 1010.3 hPa | 0 mm | 0.89 m/s, 231° | 0 W/m² | - |
| 1788362635 | 27.78° C | 86% | 1010.5 hPa | 0 mm | 0.45 m/s, 217° | 0 W/m² | - |
| 1788362574 | 27.78° C | 86% | 1010.4 hPa | 0 mm | 0.45 m/s, 243° | 0 W/m² | - |
| 1788362513 | 27.78° C | 86% | 1010.4 hPa | 0 mm | 0.89 m/s, 218° | 0 W/m² | - |
| 1788362453 | 27.78° C | 86% | 1010.5 hPa | 0 mm | 0.45 m/s, 205° | 0 W/m² | - |
| 1788362392 | 27.78° C | 86% | 1010.5 hPa | 0 mm | 0.45 m/s, 200° | 0 W/m² | - |
| 1788362332 | 27.78° C | 86% | 1010.3 hPa | 0 mm | 0.45 m/s, 228° | 0 W/m² | - |
| 1788362270 | 27.78° C | 86% | 1010.4 hPa | 0 mm | 0.45 m/s, 215° | 0 W/m² | - |
| 1788362148 | 27.78° C | 85% | 1010.5 hPa | 0 mm | 0.89 m/s, 224° | 0 W/m² | - |
| 1788362087 | 27.78° C | 85% | 1010.2 hPa | 0 mm | 0.45 m/s, 202° | 0 W/m² | - |
| 1788362027 | 27.78° C | 85% | 1010.3 hPa | 0 mm | 0 m/s | 0 W/m² | - |
| 1788361965 | 27.78° C | 85% | 1010.3 hPa | 0 mm | 0.89 m/s, 206° | 0 W/m² | - |
| 1788361904 | 27.78° C | 85% | 1010.2 hPa | 0 mm | 0 m/s | 0 W/m² | - |
| 1788361853 | 27.78° C | 85% | 1010.2 hPa | 0 mm | 0.45 m/s, 245° | 0 W/m² | - |
| 1788361782 | 27.78° C | 85% | 1010.3 hPa | 0 mm | 0.45 m/s, 141° | 0 W/m² | - |
| 1788361721 | 27.78° C | 85% | 1010.2 hPa | 0 mm | 1.79 m/s, 247° | 0 W/m² | - |
| 1788361660 | 27.78° C | 85% | 1010.3 hPa | 0 mm | 1.34 m/s, 242° | 0 W/m² | - |
| 1788361599 | 27.78° C | 85% | 1010.1 hPa | 0 mm | 0 m/s | 0 W/m² | - |
| 1788361538 | 27.78° C | 85% | 1010.3 hPa | 0 mm | 0.89 m/s, 209° | 0 W/m² | - |
| 1788361477 | 27.78° C | 85% | 1010.3 hPa | 0 mm | 0.89 m/s, 220° | 0 W/m² | - |
| 1788361416 | 27.78° C | 85% | 1010.4 hPa | 0 mm | 0.89 m/s, 219° | 0 W/m² | - |
| 1788361355 | 27.78° C | 85% | 1010.2 hPa | 0 mm | 0.89 m/s, 201° | 0 W/m² | - |
* Rain latest hour (hover to see other rain measurements)
** Current wind speed in m/s (hover to see current wind gust speed)